Torna al catalogo

FENGYUN 1C DEB

LostPO
NORAD 37898·DEBRIS·🇨🇳 China

Lanciato May 10, 1999 da Taiyuan Satellite Launch Center

Loading…

Prossimi Passaggi (prossime 24 ore)

TLE

ObsoletoSource: Space-Track

Epoca: Mar 20, 2019, 04:54 UTC

1 37898U 99025EMX 19079.20430704  .00000458  00000-0  32465-3 0  9996
2 37898  98.3427  64.4581 0124655  39.9750 321.0511 13.98361503548452

Traccia FENGYUN 1C DEB in tempo reale con AllMySat

Download on the App Store